Location: Ravensburg
(47.7866°N, 9.6124°E)
Time: 08:34:38
(UTC+02:00)

AO-91 - Pass Details

Date: 22 March 2026
Orbit: 425 x 637 km, 97.5° (Epoch: 14 April)

Event Time Altitude Azimuth Distance (km) Brightness Sun altitude
Rises 21:40:25 0° 10° (N) 2,936 ? -29.2°
Reaches altitude 10° 21:42:41 10° 9° (N) 2,008 ? -29.5°
Enters shadow 21:44:38 26° 5° (N) 1,241 ? -29.7°
